Weather History for Tampa Macdill AFB, FL

Change the Weather History Date:

Saturday, February 2, 2013

  Actual Average Record
Temperature  
Mean Temperature 56 °F -  
Max Temperature 72 °F 68 °F 84 °F (2014)
Min Temperature 40 °F 50 °F 40 °F (2013)
Degree Days  
Heating Degree Days 9    
Growing Degree Days 6 (Base 50)    
Moisture  
Dew Point 43 °F    
Average Humidity 65    
Maximum Humidity 91    
Minimum Humidity 27    
Precipitation  
Precipitation 0.00 in - - ()
Sea Level Pressure  
Sea Level Pressure 30.25 in    
Wind  
Wind Speed 7 mph (NNE)    
Max Wind Speed 12 mph    
Max Gust Speed -    
Visibility 10 miles    
Events      
Averages and records for this station are not official NWS values.
T = Trace of Precipitation, MM = Missing Value Source: NWS Daily Summary

Daily Weather History Graph

Daily Weather History Graph

Search for Another Location

Airport:

Trip Planner

Search our weather history database for the weather conditions in past years. The results will help you decide how hot, cold, wet, or windy it might be!

Date:

Astronomy

Feb. 02, 2013 Rise Set
Actual Time 7:16 AM EST 6:11 PM EST
Civil Twilight 6:51 AM EST 6:36 PM EST
Nautical Twilight 6:23 AM EST 7:04 PM EST
Astronomical Twilight 5:56 AM EST 7:31 PM EST
Moon No Moon Rise 11:05 AM EST (2/2)
Length of Visible Light 11h 44m
Length of Day
10h 55m
Waning Gibbous, 60% of the Moon is Illuminated
Feb 2
Waning Gibbous
Feb 3
Last Quarter
Feb 10
New
Feb 17
First Quarter
Feb 25
Full

Hourly Weather History & Observations

Time (EST) Temp. Windchill Dew Point Humidity Pressure Visibility Wind Dir Wind Speed Gust Speed Precip Events Conditions
12:55 AM 46.0 °F 43.9 °F 41.7 °F 85% 30.30 in 10.0 mi NE 4.6 mph - N/A   Clear
1:55 AM 47.3 °F - 43.0 °F 85% 30.30 in 10.0 mi NE 5.8 mph - N/A   Clear
2:55 AM 46.6 °F - 39.9 °F 78% 30.30 in 10.0 mi NE 5.8 mph - N/A   Clear
3:55 AM 44.4 °F 40.0 °F 39.4 °F 82% 30.30 in 10.0 mi NE 8.1 mph - N/A   Clear
4:55 AM 42.8 °F 37.5 °F 37.6 °F 82% 30.30 in 10.0 mi ENE 9.2 mph - N/A   Clear
5:55 AM 41.4 °F 35.7 °F 37.6 °F 86% 30.29 in 10.0 mi ENE 9.2 mph - N/A   Clear
6:55 AM 40.8 °F 35.0 °F 37.4 °F 88% 30.31 in 10.0 mi East 9.2 mph - N/A   Clear
7:55 AM 42.6 °F 37.8 °F 40.3 °F 91% 30.32 in 10.0 mi ENE 8.1 mph - N/A   Clear
8:55 AM 51.8 °F - 44.2 °F 75% 30.32 in 10.0 mi ENE 10.4 mph - N/A   Clear
9:55 AM 56.8 °F - 43.7 °F 61% 30.32 in 10.0 mi ENE 11.5 mph - N/A   Clear
10:55 AM 60.6 °F - 44.4 °F 55% 30.31 in 10.0 mi East 11.5 mph - N/A   Clear
11:55 AM 65.5 °F - 43.2 °F 44% 30.29 in 10.0 mi NE 6.9 mph - N/A   Clear
12:55 PM 70.2 °F - 34.3 °F 27% 30.26 in 10.0 mi Calm Calm - N/A   Clear
1:55 PM 70.3 °F - 43.0 °F 37% 30.22 in 10.0 mi WNW 6.9 mph - N/A   Partly Cloudy
2:55 PM 71.4 °F - 38.7 °F 30% 30.20 in 10.0 mi WNW 4.6 mph - N/A   Partly Cloudy
3:55 PM 72.3 °F - 43.3 °F 35% 30.19 in 10.0 mi NNW 5.8 mph - N/A   Clear
4:55 PM 71.1 °F - 39.4 °F 32% 30.18 in 10.0 mi North 4.6 mph - N/A   Clear
5:55 PM 66.4 °F - 49.5 °F 54% 30.18 in 10.0 mi NNW 8.1 mph - N/A   Clear
6:55 PM 60.1 °F - 48.9 °F 67% 30.19 in 10.0 mi NNW 8.1 mph - N/A   Clear
7:55 PM 57.9 °F - 47.8 °F 69% 30.20 in 10.0 mi North 6.9 mph - N/A   Clear
8:55 PM 56.3 °F - 46.8 °F 70% 30.20 in 10.0 mi North 6.9 mph - N/A   Clear
9:55 PM 55.0 °F - 46.4 °F 73% 30.20 in 10.0 mi North 5.8 mph - N/A   Clear
10:55 PM 54.3 °F - 46.4 °F 75% 30.19 in 10.0 mi North 4.6 mph - N/A   Clear
11:55 PM 54.1 °F - 46.6 °F 76% 30.19 in 10.0 mi North 4.6 mph - N/A   Clear